Regional Weather Roundup
Issued by NWS

Home | Current Version | Previous Version | Graphics & Text | Print | Product List | Glossary On
Versions: 1 2 3 4 5 6 7 8 9 10 11 12 13 14 15 16 17 18 19 20 21 22 23 24 25 26 27 28 29 30 31 32 33 34 35 36 37 38 39 40 41 42 43 44 45 46 47 48 49 50
000
ASUS43 KFSD 251110
RWRSD

WEATHER ROUNDUP FOR SOUTH DAKOTA
NATIONAL WEATHER SERVICE SIOUX FALLS SD
600 AM CDT FRI MAY 25 2018

NOTE: "FAIR" INDICATES FEW OR NO CLOUDS BELOW 12,000 FEET WITH NO
SIGNIFICANT WEATHER AND/OR OBSTRUCTIONS TO VISIBILITY.


SDZ001>005-009-010-012>017-251200-
NORTHWEST AND NORTH CENTRAL SOUTH DAKOTA

CITY           SKY/WX    TMP DP  RH WIND       PRES   REMARKS
BUFFALO          N/A     58  49  72 W9        29.83S
FAITH            N/A     61  56  83 SW12      29.86S
MOBRIDGE       CLEAR     63  56  78 NW7       29.78S
$$

SDZ012>016-024>037-041>051-057-063-072>074-251200-
SOUTHWEST AND SOUTH CENTRAL SOUTH DAKOTA

CITY           SKY/WX    TMP DP  RH WIND       PRES   REMARKS
RAPID CTY ARPT CLEAR     56  51  84 NW8       29.91S
PIERRE         MOCLDY    62  59  90 SW6       29.81F
CUSTER         CLEAR     53  41  63 NW6       30.06R
ELLSWORTH AFB  CLEAR     57  55  93 N9        29.91S
PHILIP         PTCLDY    55  55 100 W6        29.87R
PINE RIDGE     CLEAR     51  50  96 W3        29.94R
SPEARFISH      FAIR      54  48  82 SW6       29.98R
WINNER         FAIR      67  58  72 SW9       29.85F
$$

SDZ004>011-016>023-039-040-251200-
NORTHEAST SOUTH DAKOTA

CITY           SKY/WX    TMP DP  RH WIND       PRES   REMARKS
ABERDEEN       CLEAR     57  54  89 S8        29.78R
WATERTOWN      CLEAR     59  58  96 CALM      29.80S
BROOKINGS      CLEAR     60  58  92 SE5       29.83R
SISSETON         N/A     64  59  83 SW7       29.75S
$$

SDZ017-020-022-023-036>040-048>070-251200-
SOUTHEAST SOUTH DAKOTA

CITY           SKY/WX    TMP DP  RH WIND       PRES   REMARKS
SIOUX FALLS    PTCLDY    64  60  87 CALM      29.82S
HURON          CLEAR     61  59  93 SW3       29.80S
CHAMBERLAIN    CLEAR     58  58 100 SW3       29.84S
MITCHELL       CLEAR     63  60  90 SW5       29.82R
YANKTON        CLEAR     62  59  90 CALM      29.82F
$$

ABBREVIATIONS USED IN REMARKS
   TC - TEMPERATURE IN CELSIUS
  WCI - WIND CHILL INDEX
   HX - HEAT INDEX
  VSB - VISIBILITY





USA.gov is the U.S. government's official web portal to all federal, state and local government web resources and services.